Rutland, VT

2:44 PM EST on December 17, 2017 (GMT -0500)
Rutland State

Weather History for KRUT - November, 2014

Change the Weather History Date:

Sunday, November 9, 2014

  Actual Average Record
Temperature  
Mean Temperature 38 °F -  
Max Temperature 45 °F - 71 °F (1975)
Min Temperature 30 °F - 12 °F (1971)
Degree Days  
Heating Degree Days 27    
Month to date heating degree days 230  
Since 1 July heating degree days 925  
Cooling Degree Days 0    
Month to date cooling degree days 0  
Year to date cooling degree days 280  
Moisture  
Dew Point 28 °F    
Average Humidity 69    
Maximum Humidity 85    
Minimum Humidity 53    
Precipitation  
Precipitation 0.00 in - 1.32 in (2005)
Month to date precipitation 0.00  
Year to date precipitation 23.02  
Sea Level Pressure  
Sea Level Pressure 29.89 in    
Wind  
Wind Speed 6 mph (South)    
Max Wind Speed 13 mph    
Max Gust Speed 18 mph    
Visibility 10 miles    
Events      
T = Trace of Precipitation, MM = Missing Value Source: NWS Daily Summary

Daily Weather History Graph

Daily Weather History Graph

Search for Another Location

Airport or City:

Trip Planner

Search our weather history database for the weather conditions in past years. The results will help you decide how hot, cold, wet, or windy it might be!

Date:

Astronomy

Nov. 09, 2014 Rise Set
Actual Time 6:37 AM EST 4:32 PM EST
Civil Twilight 6:07 AM EST 5:03 PM EST
Nautical Twilight 5:33 AM EST 5:37 PM EST
Astronomical Twilight 4:59 AM EST 6:11 PM EST
Moon 7:02 PM EST (11/9) 9:09 AM EST (11/9)
Length of Visible Light 10h 56m
Length of Day
9h 55m
Waning Gibbous, 91% of the Moon is Illuminated
Nov 9
Waning Gibbous
Nov 14
Last Quarter
Nov 22
New
Nov 29
First Quarter
Dec 6
Full

Hourly Weather History & Observations

Time (EST) Temp. Windchill Dew Point Humidity Pressure Visibility Wind Dir Wind Speed Gust Speed Precip Events Conditions
12:15 AM 37.4 °F 32.8 °F 26.6 °F 65% 29.81 in 10.0 mi SE 5.8 mph - N/A   Overcast
12:35 AM 39.2 °F 35.0 °F 26.6 °F 61% 29.81 in 10.0 mi SE 5.8 mph - N/A   Overcast
12:55 AM 39.2 °F 33.6 °F 26.6 °F 61% 29.80 in 10.0 mi SE 8.1 mph - N/A   Overcast
1:15 AM 39.2 °F 35.0 °F 26.6 °F 61% 29.80 in 10.0 mi SSE 5.8 mph - N/A   Overcast
1:35 AM 39.2 °F 34.2 °F 26.6 °F 61% 29.81 in 10.0 mi SE 6.9 mph - N/A   Overcast
1:55 AM 39.2 °F 35.9 °F 26.6 °F 61% 29.80 in 10.0 mi South 4.6 mph - N/A   Overcast
2:15 AM 39.2 °F 33.6 °F 26.6 °F 61% 29.80 in 10.0 mi ESE 8.1 mph - N/A   Overcast
2:35 AM 39.2 °F 37.0 °F 26.6 °F 61% 29.80 in 10.0 mi ESE 3.5 mph - N/A   Overcast
2:55 AM 39.2 °F 35.9 °F 26.6 °F 61% 29.80 in 10.0 mi SE 4.6 mph - N/A   Overcast
3:15 AM 39.2 °F - 28.4 °F 65% 29.80 in 10.0 mi Calm Calm - N/A   Overcast
3:35 AM 41.0 °F 37.1 °F 26.6 °F 57% 29.81 in 10.0 mi East 5.8 mph - N/A   Overcast
3:55 AM 41.0 °F 39.0 °F 26.6 °F 57% 29.81 in 10.0 mi SE 3.5 mph - N/A   Overcast
4:15 AM 41.0 °F - 28.4 °F 61% 29.81 in 10.0 mi Calm Calm - N/A   Overcast
4:35 AM 42.8 °F - 28.4 °F 57% 29.81 in 10.0 mi Calm Calm - N/A   Overcast
4:55 AM 41.0 °F 39.0 °F 28.4 °F 61% 29.81 in 10.0 mi SSE 3.5 mph - N/A   Overcast
5:15 AM 42.8 °F - 28.4 °F 57% 29.81 in 10.0 mi Calm Calm - N/A   Overcast
5:35 AM 41.0 °F - 28.4 °F 61% 29.82 in 10.0 mi Calm Calm - N/A   Overcast
5:55 AM 39.2 °F 37.0 °F 28.4 °F 65% 29.83 in 10.0 mi SSE 3.5 mph - N/A   Overcast
6:15 AM 42.8 °F 38.6 °F 26.6 °F 53% 29.84 in 10.0 mi South 6.9 mph - N/A   Overcast
6:35 AM 42.8 °F 41.1 °F 26.6 °F 53% 29.85 in 10.0 mi SW 3.5 mph - N/A   Overcast
6:55 AM 42.8 °F 41.1 °F 26.6 °F 53% 29.86 in 10.0 mi SSW 3.5 mph - N/A   Overcast
7:15 AM 42.8 °F 39.3 °F 26.6 °F 53% 29.86 in 10.0 mi SSW 5.8 mph - N/A   Overcast
7:35 AM 42.8 °F 39.3 °F 26.6 °F 53% 29.87 in 10.0 mi SW 5.8 mph - N/A   Overcast
7:55 AM 42.8 °F 40.1 °F 28.4 °F 57% 29.88 in 10.0 mi WSW 4.6 mph - N/A   Overcast
8:15 AM 42.8 °F 39.3 °F 28.4 °F 57% 29.88 in 10.0 mi SW 5.8 mph - N/A   Overcast
8:35 AM 44.6 °F 41.4 °F 28.4 °F 53% 29.88 in 10.0 mi WSW 5.8 mph - N/A   Overcast
8:55 AM 44.6 °F 43.1 °F 28.4 °F 53% 29.89 in 10.0 mi WSW 3.5 mph - N/A   Overcast
9:15 AM 44.6 °F 40.7 °F 28.4 °F 53% 29.89 in 10.0 mi SSW 6.9 mph - N/A   Overcast
9:35 AM 44.6 °F 40.2 °F 30.2 °F 57% 29.89 in 10.0 mi SW 8.1 mph 16.1 mph N/A   Overcast
9:55 AM 44.6 °F 40.7 °F 30.2 °F 57% 29.90 in 10.0 mi WSW 6.9 mph - N/A   Overcast
10:15 AM 44.6 °F 41.4 °F 30.2 °F 57% 29.90 in 10.0 mi WSW 5.8 mph - N/A   Overcast
10:35 AM 44.6 °F 40.7 °F 30.2 °F 57% 29.89 in 10.0 mi WSW 6.9 mph - N/A   Overcast
10:55 AM 44.6 °F 41.4 °F 30.2 °F 57% 29.89 in 10.0 mi SW 5.8 mph - N/A   Overcast
11:15 AM 44.6 °F 38.8 °F 28.4 °F 53% 29.89 in 10.0 mi West 11.5 mph 16.1 mph N/A   Overcast
11:35 AM 44.6 °F 40.7 °F 28.4 °F 53% 29.89 in 10.0 mi WSW 6.9 mph - N/A   Overcast
11:55 AM 44.6 °F 40.2 °F 30.2 °F 57% 29.89 in 10.0 mi WSW 8.1 mph - N/A   Overcast
12:15 PM 44.6 °F 40.2 °F 28.4 °F 53% 29.88 in 10.0 mi West 8.1 mph 16.1 mph N/A   Overcast
12:35 PM 44.6 °F 38.8 °F 30.2 °F 57% 29.88 in 10.0 mi WSW 11.5 mph 18.4 mph N/A   Overcast
12:55 PM 44.6 °F 41.4 °F 30.2 °F 57% 29.88 in 10.0 mi WSW 5.8 mph - N/A   Overcast
1:15 PM 44.6 °F 38.8 °F 30.2 °F 57% 29.89 in 10.0 mi WSW 11.5 mph - N/A   Overcast
1:35 PM 44.6 °F 40.2 °F 30.2 °F 57% 29.88 in 10.0 mi West 8.1 mph - N/A   Overcast
1:55 PM 42.8 °F 39.3 °F 33.8 °F 70% 29.89 in 10.0 mi NNW 5.8 mph - N/A   Overcast
2:15 PM 42.8 °F 38.6 °F 30.2 °F 61% 29.89 in 10.0 mi NW 6.9 mph - N/A   Overcast
2:35 PM 42.8 °F 39.3 °F 33.8 °F 70% 29.90 in 10.0 mi North 5.8 mph - N/A   Overcast
2:55 PM 42.8 °F - 32.0 °F 66% 29.90 in 10.0 mi Calm Calm - N/A   Overcast
3:15 PM 44.6 °F - 30.2 °F 57% 29.90 in 10.0 mi Calm Calm - N/A   Mostly Cloudy
3:35 PM 44.6 °F - 28.4 °F 53% 29.90 in 10.0 mi Calm Calm - N/A   Mostly Cloudy
3:55 PM 44.6 °F 43.1 °F 28.4 °F 53% 29.91 in 10.0 mi West 3.5 mph - N/A   Partly Cloudy
4:15 PM 42.8 °F - 30.2 °F 61% 29.92 in 10.0 mi Calm Calm - N/A   Clear
4:35 PM 42.8 °F - 30.2 °F 61% 29.92 in 10.0 mi Calm Calm - N/A   Mostly Cloudy
4:55 PM 39.2 °F - 30.2 °F 70% 29.92 in 10.0 mi Calm Calm - N/A   Overcast
5:15 PM 37.4 °F - 30.2 °F 75% 29.93 in 10.0 mi Calm Calm - N/A   Overcast
5:35 PM 37.4 °F 33.8 °F 30.2 °F 75% 29.94 in 10.0 mi SE 4.6 mph - N/A   Mostly Cloudy
5:55 PM 37.4 °F 33.8 °F 30.2 °F 75% 29.94 in 10.0 mi SE 4.6 mph - N/A   Partly Cloudy
6:15 PM 35.6 °F - 30.2 °F 81% 29.95 in 10.0 mi Calm Calm - N/A   Clear
6:35 PM 35.6 °F 32.8 °F 30.2 °F 81% 29.95 in 10.0 mi ESE 3.5 mph - N/A   Clear
6:55 PM 35.6 °F 30.7 °F 30.2 °F 81% 29.95 in 10.0 mi ESE 5.8 mph - N/A   Clear
7:15 PM 33.8 °F 26.4 °F 28.4 °F 81% 29.95 in 10.0 mi ESE 9.2 mph - N/A   Clear
7:35 PM 33.8 °F 26.4 °F 28.4 °F 81% 29.95 in 10.0 mi ESE 9.2 mph - N/A   Clear
7:55 PM 33.8 °F 26.4 °F 26.6 °F 75% 29.95 in 10.0 mi SE 9.2 mph - N/A   Clear
8:15 PM 33.8 °F 25.8 °F 26.6 °F 75% 29.96 in 10.0 mi SE 10.4 mph - N/A   Clear
8:35 PM 33.8 °F 26.4 °F 26.6 °F 75% 29.96 in 10.0 mi SE 9.2 mph - N/A   Clear
8:55 PM 32.0 °F 22.5 °F 26.6 °F 80% 29.96 in 10.0 mi SE 12.7 mph - N/A   Clear
9:15 PM 32.0 °F 24.8 °F 26.6 °F 80% 29.96 in 10.0 mi SSE 8.1 mph - N/A   Clear
9:35 PM 32.0 °F 23.0 °F 26.6 °F 80% 29.96 in 10.0 mi SE 11.5 mph - N/A   Clear
9:55 PM 32.0 °F 23.6 °F 26.6 °F 80% 29.96 in 10.0 mi ESE 10.4 mph - N/A   Clear
10:15 PM 30.2 °F 23.4 °F 26.6 °F 86% 29.97 in 10.0 mi SE 6.9 mph - N/A   Clear
10:35 PM 30.2 °F 21.9 °F 26.6 °F 86% 29.97 in 10.0 mi SE 9.2 mph - N/A   Clear
10:55 PM 30.2 °F 23.4 °F 26.6 °F 86% 29.97 in 10.0 mi SSE 6.9 mph - N/A   Clear
11:15 PM 30.2 °F 24.3 °F 26.6 °F 86% 29.97 in 10.0 mi SSE 5.8 mph - N/A   Clear
11:35 PM 30.2 °F 24.3 °F 26.6 °F 86% 29.98 in 10.0 mi SSE 5.8 mph - N/A   Clear
11:55 PM 30.2 °F 23.4 °F 26.6 °F 86% 29.99 in 10.0 mi SE 6.9 mph - N/A   Clear